Location: Cheyres
(46.8153°N, 6.7877°E)
Time: 20:12:02
(UTC+00:00)

AO-109 - Pass Details

Date: 05 July 2022
Orbit: 469 x 506 km, 60.7° (Epoch: 16 August)

Event Time Altitude Azimuth Distance (km) Brightness Sun altitude
Exits shadow 02:35:07 14° 214° (SW) 1,429 ? -9.7°
Maximum altitude 02:38:15 71° 132° (SE) 512 ? -9.3°
Drops below altitude 10° 02:41:59 10° 48° (NE) 1,676 ? -8.9°
Sets 02:44:10 0° 46° (NE) 2,569 ? -8.6°
